Hourly Weather Smychek

Today, 16 January, Saturday

Time Temperature Precipitation Wind Pressure Humidity
00:00 -20°C° 0 mm 2 mps 751 mmHg 93%
01:00 -20°C° 0 mm 2 mps 751 mmHg 94%
02:00 -19°C° 0 mm 2 mps 751 mmHg 93%
03:00 -19°C° 0.1 mm 2 mps 751 mmHg 93%
04:00 -19°C° 0.1 mm 2 mps 751 mmHg 93%
05:00 -19°C° 0.1 mm 2 mps 750 mmHg 93%
06:00 -20°C° 0 mm 2 mps 751 mmHg 93%
07:00 -20°C° 0 mm 2 mps 751 mmHg 93%
08:00 -20°C° 0 mm 2 mps 751 mmHg 94%
09:00 -20°C° 0 mm 2 mps 751 mmHg 92%
10:00 -22°C° 0 mm 3 mps 752 mmHg 91%
11:00 -22°C° 0 mm 3 mps 752 mmHg 90%
12:00 -21°C° 0 mm 3 mps 752 mmHg 89%
13:00 -19°C° 0 mm 2 mps 752 mmHg 88%
14:00 -18°C° 0 mm 2 mps 751 mmHg 88%
15:00 -18°C° 0 mm 2 mps 751 mmHg 89%
16:00 -19°C° 0 mm 3 mps 751 mmHg 89%
17:00 -19°C° 0 mm 3 mps 751 mmHg 90%
18:00 -21°C° 0 mm 3 mps 751 mmHg 90%
19:00 -21°C° 0 mm 3 mps 752 mmHg 91%
20:00 -21°C° 0 mm 3 mps 752 mmHg 91%
21:00 -21°C° 0 mm 3 mps 752 mmHg 92%
22:00 -21°C° 0 mm 3 mps 752 mmHg 92%
23:00 -21°C° 0 mm 3 mps 752 mmHg 93%

Tomorrow, 17 January, Sunday

Time Temperature Precipitation Wind Pressure Humidity
00:00 -19°C° 0 mm 2 mps 753 mmHg 94%
01:00 -20°C° 0 mm 2 mps 753 mmHg 95%
02:00 -20°C° 0 mm 2 mps 753 mmHg 97%
03:00 -20°C° 0 mm 2 mps 753 mmHg 97%
04:00 -21°C° 0 mm 2 mps 753 mmHg 97%
05:00 -21°C° 0 mm 2 mps 753 mmHg 97%
06:00 -21°C° 0 mm 2 mps 753 mmHg 96%
07:00 -23°C° 0 mm 2 mps 753 mmHg 95%
08:00 -23°C° 0 mm 2 mps 754 mmHg 94%
09:00 -19°C° 0 mm 1 mps 754 mmHg 91%
10:00 -18°C° 0 mm 1 mps 754 mmHg 88%
11:00 -17°C° 0 mm 1 mps 755 mmHg 85%
12:00 -16°C° 0 mm 1 mps 755 mmHg 85%
13:00 -16°C° 0 mm 1 mps 755 mmHg 85%
14:00 -15°C° 0 mm 1 mps 755 mmHg 86%
15:00 -16°C° 0 mm 1 mps 755 mmHg 88%
16:00 -16°C° 0 mm 1 mps 755 mmHg 91%
17:00 -17°C° 0 mm 1 mps 755 mmHg 94%
18:00 -17°C° 0 mm 1 mps 755 mmHg 95%
19:00 -17°C° 0 mm 1 mps 755 mmHg 95%
20:00 -17°C° 0 mm 1 mps 755 mmHg 96%
21:00 -17°C° 0 mm 1 mps 755 mmHg 96%
22:00 -16°C° 0 mm 1 mps 755 mmHg 96%
23:00 -16°C° 0 mm 1 mps 755 mmHg 96%

Day after tomorrow, 18 January, Monday

Time Temperature Precipitation Wind Pressure Humidity
00:00 -16°C° 0 mm 1 mps 755 mmHg 96%
01:00 -16°C° 0 mm 1 mps 755 mmHg 96%
02:00 -15°C° 0 mm 1 mps 755 mmHg 96%
03:00 -15°C° 0 mm 1 mps 755 mmHg 96%
04:00 -14°C° 0 mm 1 mps 755 mmHg 96%
05:00 -14°C° 0 mm 1 mps 754 mmHg 96%
06:00 -13°C° 0.1 mm 1 mps 754 mmHg 96%
07:00 -13°C° 0.1 mm 1 mps 755 mmHg 96%
08:00 -12°C° 0.1 mm 1 mps 755 mmHg 95%
09:00 -12°C° 0.1 mm 1 mps 755 mmHg 94%
10:00 -11°C° 0.1 mm 1 mps 755 mmHg 93%
11:00 -10°C° 0.1 mm 1 mps 755 mmHg 92%
12:00 -10°C° 0 mm 1 mps 755 mmHg 92%
13:00 -9°C° 0 mm 1 mps 754 mmHg 92%
14:00 -8°C° 0 mm 1 mps 754 mmHg 92%
15:00 -9°C° 0.1 mm 1 mps 754 mmHg 93%
16:00 -9°C° 0.1 mm 1 mps 754 mmHg 95%
17:00 -10°C° 0.1 mm 1 mps 754 mmHg 96%
18:00 -10°C° 0 mm 1 mps 754 mmHg 96%
19:00 -10°C° 0 mm 1 mps 754 mmHg 96%
20:00 -10°C° 0 mm 1 mps 754 mmHg 96%
21:00 -11°C° 0 mm 1 mps 754 mmHg 96%
22:00 -11°C° 0 mm 1 mps 754 mmHg 96%
23:00 -11°C° 0 mm 1 mps 754 mmHg 96%

19 January, Tuesday

Time Temperature Precipitation Wind Pressure Humidity
00:00 -11°C° 0 mm 1 mps 754 mmHg 96%
01:00 -11°C° 0 mm 1 mps 754 mmHg 96%
02:00 -12°C° 0 mm 1 mps 754 mmHg 96%
03:00 -12°C° 0 mm 1 mps 754 mmHg 96%
04:00 -12°C° 0 mm 1 mps 754 mmHg 96%
05:00 -13°C° 0 mm 1 mps 754 mmHg 96%
06:00 -13°C° 0 mm 1 mps 754 mmHg 96%
07:00 -13°C° 0 mm 1 mps 754 mmHg 96%
08:00 -13°C° 0 mm 1 mps 754 mmHg 96%
09:00 -13°C° 0 mm 1 mps 754 mmHg 94%
10:00 -12°C° 0 mm 1 mps 754 mmHg 93%
11:00 -11°C° 0 mm 1 mps 754 mmHg 91%
12:00 -11°C° 0 mm 1 mps 754 mmHg 91%
13:00 -10°C° 0 mm 1 mps 754 mmHg 90%
14:00 -10°C° 0 mm 1 mps 754 mmHg 90%
15:00 -11°C° 0 mm 1 mps 754 mmHg 91%
16:00 -12°C° 0 mm 1 mps 754 mmHg 93%
17:00 -13°C° 0 mm 1 mps 754 mmHg 95%
18:00 -13°C° 0 mm 1 mps 754 mmHg 95%
19:00 -13°C° 0 mm 1 mps 754 mmHg 95%
20:00 -16°C° 0 mm 2 mps 754 mmHg 95%
21:00 -16°C° 0 mm 2 mps 754 mmHg 95%
22:00 -16°C° 0 mm 2 mps 754 mmHg 96%
23:00 -16°C° 0 mm 2 mps 755 mmHg 96%

20 January, Wednesday

Time Temperature Precipitation Wind Pressure Humidity
00:00 -17°C° 0 mm 2 mps 755 mmHg 95%
01:00 -17°C° 0 mm 2 mps 755 mmHg 95%
02:00 -17°C° 0 mm 2 mps 755 mmHg 94%
03:00 -17°C° 0 mm 2 mps 755 mmHg 94%
04:00 -17°C° 0 mm 2 mps 754 mmHg 93%
05:00 -17°C° 0 mm 2 mps 754 mmHg 92%
06:00 -18°C° 0 mm 3 mps 754 mmHg 92%
07:00 -18°C° 0 mm 3 mps 754 mmHg 92%
08:00 -18°C° 0 mm 3 mps 754 mmHg 92%
09:00 -17°C° 0 mm 3 mps 754 mmHg 90%
10:00 -16°C° 0 mm 3 mps 754 mmHg 88%
11:00 -16°C° 0 mm 4 mps 754 mmHg 86%
12:00 -15°C° 0 mm 4 mps 754 mmHg 86%
13:00 -15°C° 0 mm 4 mps 753 mmHg 85%
14:00 -14°C° 0 mm 4 mps 753 mmHg 85%
15:00 -14°C° 0 mm 4 mps 753 mmHg 85%
16:00 -14°C° 0 mm 4 mps 752 mmHg 86%
17:00 -15°C° 0 mm 5 mps 752 mmHg 87%
18:00 -14°C° 0 mm 5 mps 752 mmHg 88%
19:00 -14°C° 0 mm 5 mps 751 mmHg 89%
20:00 -14°C° 0 mm 5 mps 751 mmHg 90%
21:00 -13°C° 0.1 mm 5 mps 750 mmHg 91%
22:00 -12°C° 0.1 mm 6 mps 750 mmHg 91%
23:00 -12°C° 0.1 mm 6 mps 749 mmHg 92%

21 January, Thursday

Time Temperature Precipitation Wind Pressure Humidity
00:00 -11°C° 0.3 mm 6 mps 749 mmHg 92%
01:00 -11°C° 0.3 mm 5 mps 748 mmHg 92%
02:00 -11°C° 0.3 mm 5 mps 748 mmHg 93%
03:00 -10°C° 0.2 mm 5 mps 747 mmHg 92%
04:00 -10°C° 0.2 mm 5 mps 747 mmHg 92%
05:00 -8°C° 0.2 mm 5 mps 746 mmHg 92%
06:00 -8°C° 0.1 mm 5 mps 746 mmHg 92%
07:00 -7°C° 0.1 mm 4 mps 746 mmHg 92%
08:00 -7°C° 0.1 mm 4 mps 746 mmHg 92%
09:00 -5°C° 0 mm 4 mps 746 mmHg 92%
10:00 -4°C° 0 mm 4 mps 746 mmHg 93%
11:00 -3°C° 0 mm 4 mps 746 mmHg 93%
12:00 -2°C° 0 mm 4 mps 746 mmHg 94%
13:00 -1°C° 0 mm 4 mps 745 mmHg 96%
14:00 0°C° 0 mm 4 mps 745 mmHg 97%
15:00 -1°C° 0.1 mm 4 mps 745 mmHg 96%
16:00 -1°C° 0.1 mm 4 mps 745 mmHg 95%
17:00 -1°C° 0.1 mm 4 mps 745 mmHg 94%
18:00 -1°C° 0 mm 4 mps 745 mmHg 94%
19:00 -1°C° 0 mm 4 mps 745 mmHg 93%
20:00 -1°C° 0 mm 4 mps 745 mmHg 93%
21:00 -1°C° 0 mm 4 mps 745 mmHg 93%
22:00 -1°C° 0 mm 4 mps 745 mmHg 93%
23:00 -1°C° 0 mm 4 mps 745 mmHg 93%
Show more